| time (UTC) | temp F | wind direction | speed MPH | gust MPH | rain 1hr in | rain 24hr in | rain mn in | humidity % | barometer mb |
| 20260831010012 | 65 | 320 | 0.0 | 2.0 | 0.00 | 0.00 | 0.00 | 72 | 1017.7 |
| 20260831004509 | 65 | 4 | 0.0 | 1.0 | 0.00 | 0.00 | 0.00 | 72 | 1017.7 |
| 20260831003008 | 65 | 354 | 0.0 | 3.0 | 0.00 | 0.00 | 0.00 | 73 | 1017.8 |
| 20260831001509 | 65 | 56 | 0.0 | 4.0 | 0.00 | 0.00 | 0.00 | 72 | 1017.8 |
| 20260831000007 | 65 | 68 | 0.0 | 5.0 | 0.00 | 0.00 | 0.00 | 71 | 1017.9 |
| 20260830234510 | 65 | 58 | 1.0 | 3.0 | 0.00 | 0.00 | 0.00 | 71 | 1018.1 |
| 20260830233006 | 65 | 360 | 0.0 | 4.0 | 0.00 | 0.00 | 0.00 | 72 | 1018.3 |
| 20260830231506 | 66 | 66 | 0.0 | 3.0 | 0.00 | 0.00 | 0.00 | 71 | 1018.4 |
| 20260830230005 | 66 | 68 | 0.0 | 1.0 | 0.00 | 0.00 | 0.00 | 70 | 1018.5 |
| 20260830224505 | 66 | 58 | 0.0 | 2.0 | 0.00 | 0.00 | 0.00 | 69 | 1018.6 |
| 20260830223005 | 66 | 65 | 0.0 | 2.0 | 0.00 | 0.00 | 0.00 | 69 | 1018.7 |
| 20260830221504 | 66 | 215 | 0.0 | 5.0 | 0.00 | 0.00 | 0.00 | 69 | 1018.7 |
| 20260830220003 | 67 | 215 | 0.0 | 4.0 | 0.00 | 0.00 | 0.00 | 69 | 1018.8 |
| 20260830214608 | 65 | 63 | 0.0 | 3.0 | 0.00 | 0.00 | 0.00 | 71 | 1018.8 |
| 20260830213103 | 64 | 78 | 2.0 | 4.0 | 0.00 | 0.00 | 0.00 | 72 | 1019.0 |
| 20260830211603 | 65 | 129 | 0.0 | 2.0 | 0.00 | 0.00 | 0.00 | 71 | 1018.9 |
| 20260830210104 | 65 | 211 | 0.0 | 2.0 | 0.00 | 0.00 | 0.00 | 71 | 1018.9 |
| 20260830204556 | 65 | 130 | 0.0 | 2.0 | 0.00 | 0.00 | 0.00 | 72 | 1018.9 |
| 20260830203056 | 65 | 110 | 1.0 | 4.0 | 0.00 | 0.00 | 0.00 | 71 | 1018.9 |
| 20260830201554 | 65 | 93 | 0.0 | 3.0 | 0.00 | 0.00 | 0.00 | 73 | 1018.9 |
| 20260830200051 | 64 | 137 | 0.0 | 4.0 | 0.00 | 0.00 | 0.00 | 73 | 1018.8 |
| 20260830194551 | 64 | 34 | 0.0 | 6.0 | 0.00 | 0.00 | 0.00 | 73 | 1018.9 |
| 20260830193051 | 63 | 62 | 0.0 | 5.0 | 0.00 | 0.00 | 0.00 | 72 | 1018.9 |
| 20260830191553 | 64 | 67 | 0.0 | 2.0 | 0.00 | 0.00 | 0.00 | 73 | 1019.0 |
| 20260830190047 | 63 | 46 | 0.0 | 4.0 | 0.00 | 0.00 | 0.00 | 74 | 1019.0 |
| 20260830184545 | 62 | 142 | 0.0 | 4.0 | 0.00 | 0.00 | 0.00 | 76 | 1019.1 |
| 20260830183044 | 62 | 49 | 0.0 | 3.0 | 0.00 | 0.00 | 0.00 | 75 | 1019.1 |
| 20260830181544 | 62 | 58 | 0.0 | 4.0 | 0.00 | 0.00 | 0.00 | 74 | 1019.2 |
| 20260830180054 | 62 | 222 | 0.0 | 4.0 | 0.00 | 0.00 | 0.00 | 76 | 1019.0 |
| 20260830174540 | 61 | 106 | 1.0 | 3.0 | 0.00 | 0.00 | 0.00 | 75 | 1019.0 |
| 20260830173053 | 62 | 235 | 0.0 | 3.0 | 0.00 | 0.00 | 0.00 | 74 | 1018.9 |
| 20260830171538 | 61 | 44 | 0.0 | 9.0 | 0.00 | 0.00 | 0.00 | 76 | 1018.8 |
| 20260830170037 | 62 | 78 | 1.0 | 5.0 | 0.00 | 0.00 | 0.00 | 74 | 1018.8 |
| 20260830164539 | 61 | 138 | 0.0 | 5.0 | 0.00 | 0.00 | 0.00 | 76 | 1018.8 |
| 20260830163035 | 60 | 110 | 0.0 | 4.0 | 0.00 | 0.00 | 0.00 | 79 | 1018.9 |
| 20260830161535 | 60 | 99 | 0.0 | 1.0 | 0.00 | 0.00 | 0.00 | 80 | 1018.9 |
| 20260830160030 | 59 | 63 | 0.0 | 5.0 | 0.00 | 0.00 | 0.00 | 80 | 1018.9 |
| 20260830154529 | 58 | 56 | 0.0 | 4.0 | 0.00 | 0.00 | 0.00 | 83 | 1018.8 |
| 20260830153028 | 58 | 181 | 0.0 | 3.0 | 0.00 | 0.00 | 0.00 | 84 | 1018.7 |
| 20260830151527 | 58 | 60 | 0.0 | 2.0 | 0.00 | 0.00 | 0.00 | 85 | 1018.6 |
| 20260830150030 | 58 | 53 | 0.0 | 1.0 | 0.00 | 0.00 | 0.00 | 83 | 1018.7 |
| 20260830144530 | 58 | 71 | 0.0 | 1.0 | 0.00 | 0.00 | 0.00 | 82 | 1018.5 |
| 20260830143022 | 58 | 312 | 0.0 | 3.0 | 0.00 | 0.00 | 0.00 | 81 | 1018.4 |
| 20260830141536 | 58 | 57 | 0.0 | 3.0 | 0.00 | 0.00 | 0.00 | 81 | 1018.3 |
| 20260830140018 | 58 | 53 | 0.0 | 2.0 | 0.00 | 0.00 | 0.00 | 81 | 1018.1 |
| 20260830134518 | 58 | 182 | 0.0 | 3.0 | 0.00 | 0.00 | 0.00 | 81 | 1018.0 |
| 20260830133017 | 58 | 86 | 0.0 | 1.0 | 0.00 | 0.00 | 0.00 | 81 | 1017.9 |
| 20260830131520 | 58 | 63 | 0.0 | 2.0 | 0.00 | 0.00 | 0.00 | 81 | 1017.9 |
| 20260830130021 | 58 | 64 | 0.0 | 1.0 | 0.00 | 0.00 | 0.00 | 81 | 1017.9 |
| 20260830124514 | 58 | 66 | 0.0 | 0.0 | 0.00 | 0.00 | 0.00 | 81 | 1017.8 |
| 20260830123022 | 58 | 133 | 0.0 | 0.0 | 0.00 | 0.00 | 0.00 | 81 | 1017.9 |
| 20260830121514 | 58 | 64 | 0.0 | 3.0 | 0.00 | 0.00 | 0.00 | 81 | 1017.9 |
| 20260830120013 | 58 | 44 | 0.0 | 2.0 | 0.00 | 0.00 | 0.00 | 80 | 1018.0 |
| 20260830114517 | 58 | 53 | 0.0 | 1.0 | 0.00 | 0.00 | 0.00 | 80 | 1018.1 |
| 20260830113011 | 58 | 60 | 0.0 | 0.0 | 0.00 | 0.00 | 0.00 | 80 | 1017.9 |
| 20260830111510 | 58 | 71 | 0.0 | 1.0 | 0.00 | 0.00 | 0.00 | 80 | 1017.9 |
| 20260830110009 | 58 | 63 | 0.0 | 0.0 | 0.00 | 0.00 | 0.00 | 80 | 1017.8 |
| 20260830104508 | 58 | 55 | 0.0 | 1.0 | 0.00 | 0.00 | 0.00 | 80 | 1017.8 |
| 20260830103006 | 58 | 75 | 0.0 | 0.0 | 0.00 | 0.00 | 0.00 | 80 | 1017.7 |
| 20260830101505 | 58 | 55 | 0.0 | 0.0 | 0.00 | 0.00 | 0.00 | 80 | 1017.7 |
| 20260830100002 | 58 | 70 | 0.0 | 0.0 | 0.00 | 0.00 | 0.00 | 79 | 1017.5 |
| 20260830094503 | 59 | 60 | 0.0 | 2.0 | 0.00 | 0.00 | 0.00 | 78 | 1017.5 |
| 20260830093059 | 59 | 260 | 0.0 | 0.0 | 0.00 | 0.00 | 0.00 | 78 | 1017.6 |
| 20260830091558 | 59 | 86 | 0.0 | 2.0 | 0.00 | 0.00 | 0.00 | 78 | 1017.5 |
| 20260830090109 | 59 | 63 | 0.0 | 2.0 | 0.00 | 0.00 | 0.00 | 78 | 1017.6 |
| 20260830084556 | 60 | 206 | 0.0 | 0.0 | 0.00 | 0.00 | 0.00 | 77 | 1017.6 |
| 20260830083125 | 60 | 108 | 0.0 | 0.0 | 0.00 | 0.00 | 0.00 | 76 | 1017.5 |
| 20260830081553 | 60 | 145 | 0.0 | 3.0 | 0.00 | 0.00 | 0.00 | 76 | 1017.4 |
| 20260830080052 | 60 | 52 | 0.0 | 2.0 | 0.00 | 0.00 | 0.00 | 76 | 1017.3 |
| 20260830074551 | 60 | 65 | 0.0 | 1.0 | 0.00 | 0.02 | 0.00 | 75 | 1017.2 |
| 20260830073106 | 60 | 63 | 0.0 | 1.0 | 0.00 | 0.02 | 0.00 | 77 | 1017.2 |
| 20260830071548 | 60 | 62 | 0.0 | 0.0 | 0.00 | 0.02 | 0.00 | 79 | 1017.1 |
| 20260830070044 | 60 | 63 | 0.0 | 0.0 | 0.00 | 0.02 | 0.00 | 77 | 1017.1 |
| 20260830064544 | 61 | 60 | 0.0 | 1.0 | 0.00 | 0.06 | 0.02 | 75 | 1017.1 |
| 20260830063044 | 61 | 49 | 1.0 | 3.0 | 0.00 | 0.06 | 0.02 | 74 | 1017.0 |
| 20260830061545 | 61 | 62 | 0.0 | 2.0 | 0.00 | 0.06 | 0.02 | 79 | 1016.9 |
| 20260830060043 | 61 | 225 | 0.0 | 0.0 | 0.00 | 0.06 | 0.02 | 77 | 1016.9 |
| 20260830054541 | 61 | 225 | 0.0 | 0.0 | 0.00 | 0.06 | 0.02 | 78 | 1017.0 |
| 20260830053043 | 61 | 225 | 0.0 | 0.0 | 0.00 | 0.06 | 0.02 | 77 | 1016.9 |
| 20260830051540 | 61 | 226 | 0.0 | 0.0 | 0.00 | 0.06 | 0.02 | 77 | 1017.0 |
| 20260830050042 | 61 | 225 | 0.0 | 0.0 | 0.00 | 0.06 | 0.02 | 77 | 1017.0 |
| 20260830044540 | 61 | 226 | 0.0 | 0.0 | 0.00 | 0.06 | 0.02 | 76 | 1017.0 |
| 20260830043044 | 61 | 226 | 0.0 | 0.0 | 0.00 | 0.06 | 0.02 | 76 | 1016.9 |
| 20260830041539 | 61 | 226 | 0.0 | 0.0 | 0.00 | 0.06 | 0.02 | 74 | 1016.7 |
| 20260830040043 | 62 | 225 | 0.0 | 0.0 | 0.00 | 0.06 | 0.02 | 73 | 1016.6 |
| 20260830034534 | 62 | 237 | 0.0 | 0.0 | 0.00 | 0.06 | 0.02 | 71 | 1016.5 |
| 20260830033041 | 63 | 238 | 0.0 | 1.0 | 0.00 | 0.06 | 0.02 | 70 | 1016.4 |
| 20260830031530 | 64 | 144 | 0.0 | 2.0 | 0.00 | 0.06 | 0.02 | 67 | 1016.2 |
| 20260830030036 | 65 | 215 | 0.0 | 0.0 | 0.00 | 0.06 | 0.02 | 66 | 1016.1 |
| 20260830024529 | 65 | 215 | 0.0 | 2.0 | 0.00 | 0.06 | 0.02 | 65 | 1016.0 |
| 20260830023053 | 65 | 116 | 0.0 | 2.0 | 0.00 | 0.06 | 0.02 | 64 | 1016.0 |
| 20260830021525 | 66 | 131 | 0.0 | 0.0 | 0.00 | 0.06 | 0.02 | 66 | 1015.9 |
| 20260830020024 | 66 | 163 | 0.0 | 1.0 | 0.00 | 0.06 | 0.02 | 65 | 1015.8 |
| 20260830014536 | 67 | 90 | 0.0 | 1.0 | 0.00 | 0.06 | 0.02 | 64 | 1015.6 |
| 20260830013022 | 67 | 198 | 0.0 | 1.0 | 0.00 | 0.06 | 0.02 | 62 | 1015.6 |
| 20260830011536 | 67 | 132 | 0.0 | 2.0 | 0.00 | 0.06 | 0.02 | 61 | 1015.6 |